Tuesday, March 31, 2015
22:03 UTC
  |  Log In   |  Register Free
Airport Search:

Smithville Municipal Airport
(0A3)

Smithville Municipal Airport Diagram
No Airport Diagram Available

FAA data valid effective March 05, 2015 - April 30, 2015 (unless otherwise noted).

 
 
 
 
 
 
 
 
 
 
 
 
 
 

Current Aviation Weather for Smithville Municipal Airport (0A3)

METAR data is unavailable for 0A3. The nearest METAR location is at KSRB (14.2 nm NE from 0A3).

The most recent METAR observation for KSRB was updated at: 2119
METAR Summary (Translated METAR)
KSRB
312115Z AUTO 28008KT 10SM FEW070 25/08 A2988 RMK
(14.2 nm NE from 0A3)
KRNC
312055Z AUTO 29010KT 10SM FEW080 25/11 A2989 RMK
(17.3 nm SW from 0A3)
TAF Summary (Translated TAF)
KRNC
(26.3 nm SW from KSRB)
311945Z AUTO 35008KT 10SM CLR 25/12 A3011 RMK AO1 T02500116 $
  Airport Weather Conditions for 0A3

Current weather conditions are
not available for 0A3


The nearest NOAA weather station
is at SRB, (14.2 nm NE from 0A3)
  
 Current Weather at SRB
79° F
A Few Clouds
Northwest winds at 9.2 mph
SRB NOAA Radar

Pressure: 29.88 in
Humidity: 32%
Wind: Northwest at 9.2 MPH (8 KT)
Dew Point: 46.4°F
Visibility: 10.00 mi


Airport Weather Forecast for 0A3

Translated METAR and TAF for KSRB
Translated METAR for KSRB (2202 UTC 31 March 2015)
found at http://aviationweather.gov/adds/metars/
 
METAR text: KSRB 312155Z AUTO 32009KT 10SM FEW070 24/07 RMK
Conditions at: KSRB (SPARTA , TN, US) observed 2155 UTC 31 March 2015
Temperature: 24.0°C (75°F)
Dewpoint: 7.0°C (45°F) [RH = 34%]
Pressure (altimeter): missing
Winds: from the NW (320 degrees) at 10 MPH (9 knots; 4.7 m/s)
Visibility: 10 or more miles (16+ km)
Ceiling: at least 12,000 feet AGL
Clouds: few clouds at 7000 feet AGL
Weather: no significant weather observed at this time
Translated TAF for KSRB

There is no translated TAF available for this airport

Find All Airport Services Find A Hotel Find A Rental Car Find A Golf Course Find A Restaurant $100 Hamburger



FBO's on the Field
FBO Company Facility Photos Services Transportation Aviation Fuel Prices: Prices include tax
Catering Weather Repair Courtesy Rental Type 100LL JetA JetA+ MOGAS 8087
 
Smithville Municipal Airport

This FBO has not yet been rated
FS:Shell
Last Updated: Mar-16
Login to update fuel prices
SS:
Contact Smithville Municipal AirportMore FBO Information
 
Add another FBO Facility Photos Catering Weather Repair Courtesy Rental Type 100LL JetA JetA+ MOGAS 8087
Services Transportation Aviation Fuel Prices: Prices include tax


model-print
model-print
model-print
model-print